Regional Weather Roundup
Issued by NWS New Orleans/Baton Rouge, LA

Home | Current Version | Previous Version | Text Only | Print | Product List | Glossary Off
Versions: 1 2 3 4 5 6 7 8 9 10 11 12 13 14 15 16 17 18 19 20 21 22 23 24 25 26 27 28 29 30 31 32 33 34 35 36 37 38 39 40 41 42 43 44 45 46 47 48 49 50

824
ASUS44 KLIX 281905
RWRLIX
NEW ORLEANS REGIONAL WEATHER ROUNDUP
NATIONAL WEATHER SERVICE NEW ORLEANS LA
100 PM CST WED JAN 28 2015

NOTE: "FAIR" INDICATES FEW OR NO CLOUDS BELOW 12,000 FEET WITH NO
      SIGNIFICANT WEATHER AND/OR OBSTRUCTIONS TO VISIBILITY.
      SKY/WX - SKY CONDITION AND SIGNIFICANT WEATHER.
      TMP - AIR TEMPERATURE.     DP    - DEWPOINT TEMPERATURE.
      RH  - RELATIVE HUMIDITY.   PRES  - PRESSURE.
      HI  - HEAT INDEX.          WCI   - WIND CHILL INDEX.

*  THESE STATIONS ARE NOT NWS OR FAA STATIONS AND ARE NOT UNDER
   NWS QUALITY CONTROL.

LAZ038-040-048-061>063-065>067-069-282000-
SOUTHEAST LOUISIANA

CITY           SKY/WX    TMP DP  RH WIND       PRES   REMARKS
N.O. AUDUBON   NOT AVBL
N.O. INTL ARPT SUNNY     65  39  38 SE6       30.26F
N.O. LAKEFRONT SUNNY     62  40  44 E9        30.27F
N.O. DOWNTOWN* NOT AVBL
SLIDELL        SUNNY     66  35  31 N6        30.24F
BATON ROUGE    SUNNY     68  36  30 E8        30.24F
BOOTHVILLE     SUNNY     60  47  61 NE9       30.27F
BELLE CHASSE   SUNNY     64  41  42 VRB7      30.25F
BOGALUSA*        N/A     67  31  27 CALM      30.27F
GALLIANO*      CLEAR     66  46  48 MISG      30.26F
NEW ROADS*       N/A     67  37  33 SE6       30.23F
GONZALES*        N/A     67  38  33 NE3       30.25F
HAMMOND*       SUNNY     68  32  26 SE3       30.26F
HOUMA*         SUNNY     66  45  45 E12       30.25F
PORT FOURCHON* CLEAR     63  50  63 E12       30.28F

$$

MSZ070-080>082-282000-
SOUTHERN MISSISSIPPI

CITY           SKY/WX    TMP DP  RH WIND       PRES   REMARKS
MCCOMB         SUNNY     65  36  34 VRB3      30.24F
GULFPORT       SUNNY     59  40  49 SE8       30.25F
BILOXI         SUNNY     59  40  49 S8        30.25F
PASCAGOULA     SUNNY     65  29  25 N7        30.25F
STENNIS ARPT*  SUNNY     64  30  27 S5        30.26F

$$

COASTAL OBSERVATIONS
LAKE AND NEARSHORE STATIONS

STATION/POSITION TIME  TEMP    WIND        PRES    WAVE
                       AIR SEA DIR/SP/G            HT/PER
                 (UTC) (F)     (DEG/KT/KT) (MB)    (FT/S)
PASCAGOULA       1900   61     100/  1/  7 1023.9
WAVELAND YACHT   1900   52     160/  8/  9 1024.1
GRAND ISLE       1900   60 60   70/  9/ 12 1025.0
SOUTHWEST PASS   1900   67 47   60/ 12/ 13 1024.6
NEW CANAL        1900   61 54  180/  1/  4 1025.1
SHELL BEACH      1900   57 55   60/ 10/ 12 1024.7

OFFSHORE STATIONS

STATION/POSITION TIME  TEMP    WIND        PRES    WAVE
                       AIR SEA DIR/SP/G            HT/PER
                 (UTC) (F)     (DEG/KT/KT) (MB)    (FT/S)
64 S DAUPHIN ISL 1812   59 68   60/ 12/ 14 1024.4    3/ 5

$$




USA.gov is the U.S. government's official web portal to all federal, state and local government web resources and services.